Home > Time Zones > World Clock > Weather > Latvia > Riga > Past weeks

Flag for Latvia Weather past 2 weeks in Riga, Latvia

Now
73 °F

Passing clouds.


Feels Like: 76 °F
Forecast: 62 / 77 °F
Wind: 14 mph from North

Location: Riga Airport

Current Time: Jul 22, 2014 at 11:17:22 PM

Latest Report: Jul 22, 2014 at 7:50 PM


Visibility: N/A

Pressure: 30.09 "Hg

Humidity: 65%

Dew point: 61 °F

Location of RigaLocation

Historic Weather in Riga — Graph

°F

Riga temperature yesterday

Maximum temperature yesterday: 81 °F (at 2:20 PM)
Minimum temperature yesterday: 59 °F (at 4:50 AM)
Average temperature yesterday: 70 °F

Past Weeks' High & Low Weather Summary

 TemperatureHumidityPressure
High86 °F (Jul 8, 4:20 PM)100% (Jul 14, 1:50 AM)30.15 "Hg (Jul 14, 1:50 AM)
Low54 °F (Jul 17, 4:50 AM)33% (Jul 8, 3:50 PM)29.74 "Hg (Jul 13, 1:50 AM)
Average69 °F71%30.00 "Hg
* Reported Jul 7 7:20 PM — Jul 22 7:50 PM, Riga, Weather by CustomWeather, © 2014

Note: Actual official high and low records may vary slightly from our data, if they occured in-between our weather recording intervals... More about our weather records

Advertising

Riga weather history for previous 24 hours

 ConditionsComfort  
Time TempWeatherWind HumidityBarometerVisibility
7:50 PM
Jul 22
73 °FPassing clouds.14 mph65%30.09 "HgN/A
7:20 PM75 °FSunny.16 mph54%30.09 "Hg10 mi
6:50 PM75 °FSunny.17 mph54%30.09 "Hg10 mi
6:20 PM77 °FSunny.13 mph51%30.09 "Hg10 mi
5:50 PM77 °FSunny.14 mph51%30.09 "Hg10 mi
5:20 PM77 °FSunny.14 mph54%30.09 "Hg10 mi
4:50 PM75 °FSunny.15 mph54%30.09 "Hg10 mi
4:20 PM77 °FPassing clouds.12 mph51%30.12 "HgN/A
3:50 PM75 °FPassing clouds.12 mph57%30.12 "HgN/A
3:20 PM75 °FSunny.10 mph57%30.12 "Hg10 mi
2:50 PM75 °FPassing clouds.13 mph57%30.12 "HgN/A
2:20 PM77 °FSunny.13 mph47%30.12 "Hg10 mi
1:50 PM75 °FSunny.15 mph54%30.12 "Hg10 mi
1:20 PM75 °FSunny.17 mph50%30.12 "Hg10 mi
12:50 PM75 °FSunny.15 mph50%30.12 "Hg10 mi
12:20 PM75 °FSunny.14 mph50%30.12 "Hg10 mi
11:50 AM77 °FPassing clouds.16 mph39%30.12 "HgN/A
11:20 AM77 °FPassing clouds.13 mph42%30.12 "HgN/A
10:50 AM75 °FPassing clouds.13 mph44%30.12 "HgN/A
10:20 AM75 °FPassing clouds.9 mph44%30.12 "HgN/A
9:50 AM73 °FPassing clouds.9 mph53%30.12 "HgN/A
9:20 AM72 °FPassing clouds.8 mph57%30.12 "HgN/A
8:50 AM72 °FPassing clouds.6 mph57%30.09 "HgN/A
8:20 AM70 °FPassing clouds.5 mph60%30.09 "HgN/A
7:50 AM68 °FPassing clouds.6 mph64%30.09 "HgN/A
7:20 AM66 °FSunny.6 mph68%30.09 "Hg10 mi
6:50 AM64 °FPassing clouds.3 mph73%30.09 "HgN/A
6:20 AM63 °FPassing clouds.5 mph77%30.09 "HgN/A
5:50 AM59 °FClear.3 mph88%30.09 "Hg10 mi
5:20 AM57 °FClear.6 mph88%30.07 "Hg10 mi
4:50 AM59 °FClear.5 mph82%30.07 "Hg10 mi
4:20 AM61 °FClear.5 mph77%30.07 "Hg10 mi
3:50 AM63 °FClear.5 mph73%30.07 "Hg10 mi
3:20 AM63 °FClear.5 mph77%30.07 "Hg10 mi
2:50 AM63 °FClear.6 mph77%30.07 "Hg10 mi
2:20 AM63 °FPassing clouds.5 mph77%30.07 "HgN/A
1:50 AM64 °FPassing clouds.5 mph73%30.04 "HgN/A
1:20 AM70 °FClear.5 mph57%30.04 "Hg10 mi
12:20 AM66 °FClear.7 mph68%30.04 "Hg10 mi
11:50 PM
Jul 21
68 °FClear.8 mph64%30.04 "Hg10 mi
11:20 PM70 °FPassing clouds.8 mph60%30.04 "HgN/A
Weather by CustomWeather, © 2014

See weather overviewHow to use our weather pages